Location: Newark
(45.0500°N, 41.9667°E)
Time: 21:58:01
(UTC+00:00)

Starlink (trailer) - Pass Details

Date: 30 July 2019
Orbit: 549 x 551 km, 53.0° (Epoch: 23 August)

Event Time Altitude Azimuth Distance (km) Brightness Sun altitude
Rises 23:50:18 0° 302° (WNW) 2,723 7.1 -17.8°
Reaches altitude 10° 23:52:35 10° 307° (NW) 1,828 6.3 -17.5°
Maximum altitude 23:56:40 56° 26° (NNE) 659 4.3 -17.1°
Drops below altitude 10° 00:00:45 10° 106° (ESE) 1,822 6.6 -16.6°
Sets 00:03:01 0° 110° (ESE) 2,714 7.4 -16.4°
